User: anonymous
Location: Unspecified
(0.0000°N, 0.0000°E)
Time: 15:01:07
(UTC+02:00)
Language:

GPS 2-12 Rocket1 - Orbit

View from above orbital plane
View from above orbital plane
View from above satellite
View from above satellite

Ground track
Ground track

The orbit data is extracted from the following two-line orbital elements,

1 21891U 92009B   14292.44435148  .00002838  00000-0  30029-3 0  3242
2 21891 019.9978 000.5527 0048932 336.5627 023.2565 14.81161604221889
Epoch (UTC): 19 October 2014 10:39:51
Eccentricity: 0.0048932
inclination: 19.9978°
perigee height: 591 km
apogee height: 660 km
right ascension of ascending node: 0.5527°
argument of perigee: 336.5627°
revolutions per day: 14.81161604
mean anomaly at epoch: 23.2565°
orbit number at epoch: 22188

The dashed part of the orbit path shows where the satellite is in the earth's shadow,  

DLR